TimeMDT,TemperatureF,Dew PointF,Humidity,Sea Level PressureIn,VisibilityMPH,Wind Direction,Wind SpeedMPH,Gust SpeedMPH,PrecipitationIn,Events,Conditions,WindDirDegrees,DateUTC
12:53 AM,66.0,44.1,45,29.93,10.0,SSW,4.6,-,N/A,,Partly Cloudy,200,2013-08-18 06:53:00
1:53 AM,59.0,44.1,58,29.98,10.0,Calm,Calm,-,N/A,,Partly Cloudy,0,2013-08-18 07:53:00
2:53 AM,60.1,43.0,53,29.94,10.0,Calm,Calm,-,N/A,,Clear,0,2013-08-18 08:53:00
3:53 AM,54.0,43.0,66,29.96,10.0,NE,3.5,-,N/A,,Clear,50,2013-08-18 09:53:00
4:53 AM,54.0,42.1,64,29.95,10.0,ENE,6.9,-,N/A,,Partly Cloudy,60,2013-08-18 10:53:00
5:53 AM,57.0,39.9,53,29.96,10.0,NNE,6.9,-,N/A,,Clear,30,2013-08-18 11:53:00
6:53 AM,55.9,41.0,57,29.97,10.0,NE,6.9,-,N/A,,Clear,50,2013-08-18 12:53:00
7:53 AM,63.0,43.0,48,29.99,10.0,ENE,4.6,-,N/A,,Clear,70,2013-08-18 13:53:00
8:53 AM,72.0,43.0,35,29.97,10.0,NE,5.8,-,N/A,,Clear,40,2013-08-18 14:53:00
9:53 AM,77.0,43.0,30,29.96,10.0,Calm,Calm,-,N/A,,Clear,0,2013-08-18 15:53:00
10:53 AM,80.1,43.0,27,29.95,10.0,SSW,4.6,-,N/A,,Clear,210,2013-08-18 16:53:00
11:53 AM,84.0,43.0,24,29.93,10.0,South,12.7,17.3,N/A,,Clear,170,2013-08-18 17:53:00
12:06 PM,84.2,42.8,23,30.29,10.0,SSE,12.7,23.0,N/A,Thunderstorm,Clear,160,2013-08-18 18:06:00
12:36 PM,82.4,42.8,25,30.29,10.0,SSE,6.9,17.3,N/A,,Clear,160,2013-08-18 18:36:00
12:53 PM,80.1,39.9,24,29.93,10.0,WNW,4.6,-,N/A,,Partly Cloudy,290,2013-08-18 18:53:00
1:11 PM,80.6,39.2,23,30.29,10.0,WSW,8.1,16.1,N/A,Thunderstorm,Mostly Cloudy,240,2013-08-18 19:11:00
1:31 PM,80.6,39.2,23,30.30,10.0,West,19.6,26.5,N/A,Thunderstorm,Scattered Clouds,280,2013-08-18 19:31:00
1:53 PM,78.1,44.1,30,29.97,10.0,West,25.3,35.7,N/A,,Clear,270,2013-08-18 19:53:00
2:14 PM,80.6,42.8,26,30.30,10.0,West,21.9,31.1,N/A,Thunderstorm,Clear,270,2013-08-18 20:14:00
2:33 PM,80.6,39.2,23,30.31,10.0,West,21.9,36.8,N/A,,Clear,260,2013-08-18 20:33:00
2:53 PM,80.1,37.9,22,29.97,10.0,WSW,12.7,20.7,N/A,,Clear,250,2013-08-18 20:53:00
3:53 PM,82.0,36.0,19,29.96,10.0,South,10.4,-,N/A,,Clear,180,2013-08-18 21:53:00
4:53 PM,80.1,36.0,20,29.96,10.0,SSW,5.8,-,N/A,,Mostly Cloudy,210,2013-08-18 22:53:00
5:53 PM,77.0,39.9,26,29.96,10.0,North,15.0,-,N/A,,Clear,350,2013-08-18 23:53:00
6:53 PM,73.0,44.1,35,29.97,10.0,NW,13.8,-,N/A,,Scattered Clouds,320,2013-08-19 00:53:00
7:53 PM,70.0,43.0,38,29.97,10.0,NW,10.4,-,N/A,,Mostly Cloudy,320,2013-08-19 01:53:00
8:53 PM,69.1,44.1,40,29.96,10.0,NW,4.6,-,N/A,,Mostly Cloudy,310,2013-08-19 02:53:00
9:53 PM,69.1,44.1,40,29.95,10.0,WNW,6.9,-,N/A,,Mostly Cloudy,290,2013-08-19 03:53:00
10:53 PM,66.0,45.0,47,29.96,10.0,SE,6.9,-,0.00,,Clear,140,2013-08-19 04:53:00
11:53 PM,66.9,45.0,45,29.94,10.0,NE,10.4,-,N/A,,Mostly Cloudy,40,2013-08-19 05:53:00